Time,TemperatureF,DewpointF,PressureIn,WindDirection,WindDirectionDegrees,WindSpeedMPH,WindSpeedGustMPH,Humidity,HourlyPrecipIn,Conditions,Clouds,dailyrainin,SoftwareType,DateUTC
2013-01-26 00:11:00,46.1,38.0,30.12,SE,134,0.0,-999.0,74,-99.99,,,0.00,weatherlink.com 1.10,2013-01-26 05:11:00,
2013-01-26 00:26:00,46.1,38.0,30.12,SE,134,0.0,-999.0,74,-99.99,,,0.00,weatherlink.com 1.10,2013-01-26 05:26:00,
2013-01-26 00:41:00,45.8,38.0,30.12,SE,134,0.0,-999.0,74,-99.99,,,0.00,weatherlink.com 1.10,2013-01-26 05:41:00,
2013-01-26 00:56:00,45.3,38.0,30.11,SE,134,0.0,-999.0,76,-99.99,,,0.00,weatherlink.com 1.10,2013-01-26 05:56:00,
2013-01-26 01:12:00,44.7,38.0,30.11,SE,134,0.0,-999.0,77,-99.99,,,0.00,weatherlink.com 1.10,2013-01-26 06:12:00,
2013-01-26 01:27:00,44.1,38.0,30.12,SE,134,0.0,-999.0,79,-99.99,,,0.00,weatherlink.com 1.10,2013-01-26 06:27:00,
2013-01-26 01:42:00,43.5,37.0,30.12,SE,134,0.0,-999.0,79,-99.99,,,0.00,weatherlink.com 1.10,2013-01-26 06:42:00,
2013-01-26 01:57:00,42.8,37.0,30.12,SE,134,0.0,-999.0,80,-99.99,,,0.00,weatherlink.com 1.10,2013-01-26 06:57:00,
2013-01-26 02:12:00,42.2,37.0,30.11,SE,134,0.0,-999.0,81,-99.99,,,0.00,weatherlink.com 1.10,2013-01-26 07:12:00,
2013-01-26 02:27:00,41.6,37.0,30.11,SE,134,0.0,-999.0,82,-99.99,,,0.00,weatherlink.com 1.10,2013-01-26 07:27:00,
2013-01-26 02:42:00,41.2,36.0,30.11,SE,134,0.0,-999.0,83,-99.99,,,0.00,weatherlink.com 1.10,2013-01-26 07:42:00,
2013-01-26 02:57:00,40.7,36.0,30.11,SE,134,0.0,-999.0,84,-99.99,,,0.00,weatherlink.com 1.10,2013-01-26 07:57:00,
2013-01-26 03:12:00,40.3,36.0,30.10,SE,134,0.0,-999.0,85,-99.99,,,0.00,weatherlink.com 1.10,2013-01-26 08:12:00,
2013-01-26 03:27:00,40.0,36.0,30.10,SE,134,0.0,-999.0,85,-99.99,,,0.00,weatherlink.com 1.10,2013-01-26 08:27:00,
2013-01-26 03:42:00,39.8,36.0,30.10,SE,134,0.0,-999.0,86,-99.99,,,0.00,weatherlink.com 1.10,2013-01-26 08:42:00,
2013-01-26 03:57:00,39.6,36.0,30.10,SE,134,0.0,-999.0,86,-99.99,,,0.00,weatherlink.com 1.10,2013-01-26 08:57:00,
2013-01-26 04:12:00,39.3,35.0,30.09,SE,134,0.0,-999.0,85,-99.99,,,0.00,weatherlink.com 1.10,2013-01-26 09:12:00,
2013-01-26 04:27:00,39.1,35.0,30.10,SE,134,0.0,-999.0,86,-99.99,,,0.00,weatherlink.com 1.10,2013-01-26 09:27:00,
2013-01-26 04:42:00,38.8,35.0,30.10,SE,134,0.0,-999.0,86,-99.99,,,0.00,weatherlink.com 1.10,2013-01-26 09:42:00,
2013-01-26 04:57:00,38.5,35.0,30.10,SE,134,0.0,-999.0,86,-99.99,,,0.00,weatherlink.com 1.10,2013-01-26 09:57:00,
2013-01-26 05:12:00,38.3,35.0,30.10,SE,134,0.0,-999.0,87,-99.99,,,0.00,weatherlink.com 1.10,2013-01-26 10:12:00,
2013-01-26 05:27:00,38.1,35.0,30.11,SE,134,0.0,-999.0,87,-99.99,,,0.00,weatherlink.com 1.10,2013-01-26 10:27:00,
2013-01-26 05:42:00,37.9,35.0,30.11,SE,134,0.0,-999.0,88,-99.99,,,0.00,weatherlink.com 1.10,2013-01-26 10:42:00,
2013-01-26 05:57:00,37.8,35.0,30.11,SE,134,0.0,-999.0,88,-99.99,,,0.00,weatherlink.com 1.10,2013-01-26 10:57:00,
2013-01-26 06:12:00,37.8,35.0,30.11,SE,134,0.0,-999.0,88,-99.99,,,0.00,weatherlink.com 1.10,2013-01-26 11:12:00,
2013-01-26 06:27:00,37.9,35.0,30.11,SE,134,0.0,-999.0,88,-99.99,,,0.00,weatherlink.com 1.10,2013-01-26 11:27:00,
2013-01-26 06:42:00,37.8,35.0,30.11,SE,134,0.0,-999.0,88,-99.99,,,0.00,weatherlink.com 1.10,2013-01-26 11:42:00,
2013-01-26 06:57:00,37.8,35.0,30.11,SE,134,0.0,-999.0,89,-99.99,,,0.00,weatherlink.com 1.10,2013-01-26 11:57:00,
2013-01-26 07:12:00,37.9,35.0,30.12,SE,134,0.0,-999.0,89,-99.99,,,0.00,weatherlink.com 1.10,2013-01-26 12:12:00,
2013-01-26 07:27:00,38.2,35.0,30.13,SE,134,0.0,-999.0,89,-99.99,,,0.00,weatherlink.com 1.10,2013-01-26 12:27:00,
2013-01-26 07:42:00,38.7,36.0,30.13,SE,134,0.0,-999.0,89,-99.99,,,0.00,weatherlink.com 1.10,2013-01-26 12:42:00,
2013-01-26 07:57:00,39.4,37.0,30.14,SE,134,0.0,-999.0,89,-99.99,,,0.00,weatherlink.com 1.10,2013-01-26 12:57:00,
2013-01-26 08:12:00,40.5,37.0,30.13,SE,134,0.0,-999.0,88,-99.99,,,0.00,weatherlink.com 1.10,2013-01-26 13:12:00,
2013-01-26 08:27:00,42.9,38.0,30.14,SE,134,0.0,-999.0,84,-99.99,,,0.00,weatherlink.com 1.10,2013-01-26 13:27:00,
2013-01-26 08:42:00,45.6,41.0,30.16,SE,134,0.0,-999.0,83,-99.99,,,0.00,weatherlink.com 1.10,2013-01-26 13:42:00,
2013-01-26 08:57:00,46.8,40.0,30.17,SE,134,0.0,-999.0,77,-99.99,,,0.00,weatherlink.com 1.10,2013-01-26 13:57:00,
2013-01-26 09:12:00,46.9,39.0,30.18,North,5,0.0,-999.0,74,-99.99,,,0.00,weatherlink.com 1.10,2013-01-26 14:12:00,
2013-01-26 09:27:00,47.3,39.0,30.18,North,5,0.0,-999.0,73,-99.99,,,0.00,weatherlink.com 1.10,2013-01-26 14:27:00,
2013-01-26 09:42:00,47.7,39.0,30.18,North,5,0.0,-999.0,72,-99.99,,,0.00,weatherlink.com 1.10,2013-01-26 14:42:00,
2013-01-26 09:57:00,48.6,40.0,30.19,North,5,0.0,-999.0,71,-99.99,,,0.00,weatherlink.com 1.10,2013-01-26 14:57:00,
2013-01-26 10:12:00,49.7,41.0,30.18,NNW,328,0.0,-999.0,71,-99.99,,,0.00,weatherlink.com 1.10,2013-01-26 15:12:00,
2013-01-26 10:28:00,51.5,42.0,30.18,NNW,333,0.0,-999.0,69,-99.99,,,0.00,weatherlink.com 1.10,2013-01-26 15:28:00,
2013-01-26 10:43:00,53.6,43.0,30.19,North,5,2.0,-999.0,67,-99.99,,,0.00,weatherlink.com 1.10,2013-01-26 15:43:00,
2013-01-26 10:58:00,55.2,44.0,30.18,NW,313,0.0,-999.0,66,-99.99,,,0.00,weatherlink.com 1.10,2013-01-26 15:58:00,
2013-01-26 11:13:00,56.1,45.0,30.19,NW,313,0.0,-999.0,66,-99.99,,,0.00,weatherlink.com 1.10,2013-01-26 16:13:00,
2013-01-26 11:28:00,57.8,46.0,30.18,NNE,26,1.0,-999.0,64,-99.99,,,0.00,weatherlink.com 1.10,2013-01-26 16:28:00,
2013-01-26 11:43:00,58.9,47.0,30.18,NNW,342,0.0,-999.0,64,-99.99,,,0.00,weatherlink.com 1.10,2013-01-26 16:43:00,
2013-01-26 11:58:00,59.5,46.0,30.17,NNW,339,0.0,-999.0,62,-99.99,,,0.00,weatherlink.com 1.10,2013-01-26 16:58:00,
2013-01-26 12:13:00,59.9,47.0,30.17,North,355,0.0,-999.0,62,-99.99,,,0.00,weatherlink.com 1.10,2013-01-26 17:13:00,
2013-01-26 12:28:00,61.1,47.0,30.16,NE,34,0.0,-999.0,60,-99.99,,,0.00,weatherlink.com 1.10,2013-01-26 17:28:00,
2013-01-26 12:43:00,59.8,47.0,30.16,North,5,0.0,-999.0,62,-99.99,,,0.00,weatherlink.com 1.10,2013-01-26 17:43:00,
2013-01-26 12:58:00,59.1,46.0,30.16,North,5,0.0,-999.0,62,-99.99,,,0.00,weatherlink.com 1.10,2013-01-26 17:58:00,
2013-01-26 13:13:00,59.3,46.0,30.15,North,11,0.0,-999.0,62,-99.99,,,0.00,weatherlink.com 1.10,2013-01-26 18:13:00,
2013-01-26 13:28:00,60.1,46.0,30.15,North,349,0.0,-999.0,61,-99.99,,,0.00,weatherlink.com 1.10,2013-01-26 18:28:00,
2013-01-26 13:43:00,60.7,47.0,30.14,North,9,0.0,-999.0,60,-99.99,,,0.00,weatherlink.com 1.10,2013-01-26 18:43:00,
2013-01-26 13:58:00,60.9,46.0,30.15,NW,317,1.0,-999.0,58,-99.99,,,0.00,weatherlink.com 1.10,2013-01-26 18:58:00,
2013-01-26 14:13:00,60.7,45.0,30.14,North,351,0.0,-999.0,57,-99.99,,,0.00,weatherlink.com 1.10,2013-01-26 19:13:00,
2013-01-26 14:28:00,60.5,44.0,30.15,West,278,0.0,-999.0,55,-99.99,,,0.00,weatherlink.com 1.10,2013-01-26 19:28:00,
2013-01-26 14:43:00,60.8,43.0,30.15,East,90,0.0,-999.0,52,-99.99,,,0.00,weatherlink.com 1.10,2013-01-26 19:43:00,
2013-01-26 14:58:00,60.9,42.0,30.15,ESE,114,0.0,-999.0,51,-99.99,,,0.00,weatherlink.com 1.10,2013-01-26 19:58:00,
2013-01-26 15:13:00,61.1,41.0,30.15,ESE,105,0.0,-999.0,48,-99.99,,,0.00,weatherlink.com 1.10,2013-01-26 20:13:00,
2013-01-26 15:28:00,61.7,41.0,30.15,NNE,19,0.0,-999.0,46,-99.99,,,0.00,weatherlink.com 1.10,2013-01-26 20:28:00,
2013-01-26 15:43:00,61.4,40.0,30.15,NNW,344,0.0,-999.0,46,-99.99,,,0.00,weatherlink.com 1.10,2013-01-26 20:43:00,
2013-01-26 15:58:00,60.6,39.0,30.16,NE,42,0.0,-999.0,45,-99.99,,,0.00,weatherlink.com 1.10,2013-01-26 20:58:00,
2013-01-26 16:13:00,60.0,38.0,30.16,WSW,239,0.0,-999.0,44,-99.99,,,0.00,weatherlink.com 1.10,2013-01-26 21:13:00,
2013-01-26 16:28:00,59.8,39.0,30.16,WSW,257,0.0,-999.0,46,-99.99,,,0.00,weatherlink.com 1.10,2013-01-26 21:28:00,
2013-01-26 16:43:00,59.7,39.0,30.16,West,259,0.0,-999.0,47,-99.99,,,0.00,weatherlink.com 1.10,2013-01-26 21:43:00,
2013-01-26 16:58:00,59.3,42.0,30.17,West,259,0.0,-999.0,53,-99.99,,,0.00,weatherlink.com 1.10,2013-01-26 21:58:00,
2013-01-26 17:13:00,58.4,44.0,30.17,East,94,0.0,-999.0,59,-99.99,,,0.00,weatherlink.com 1.10,2013-01-26 22:13:00,
2013-01-26 17:28:00,57.1,46.0,30.18,ENE,66,0.0,-999.0,67,-99.99,,,0.00,weatherlink.com 1.10,2013-01-26 22:28:00,
2013-01-26 17:43:00,55.5,46.0,30.19,SE,146,0.0,-999.0,71,-99.99,,,0.00,weatherlink.com 1.10,2013-01-26 22:43:00,
2013-01-26 17:58:00,53.8,45.0,30.20,ESE,113,0.0,-999.0,73,-99.99,,,0.00,weatherlink.com 1.10,2013-01-26 22:58:00,
2013-01-26 18:13:00,52.2,45.0,30.20,South,169,0.0,-999.0,76,-99.99,,,0.00,weatherlink.com 1.10,2013-01-26 23:13:00,
2013-01-26 18:28:00,51.1,44.0,30.20,East,84,0.0,-999.0,78,-99.99,,,0.00,weatherlink.com 1.10,2013-01-26 23:28:00,
2013-01-26 18:43:00,50.1,44.0,30.21,East,84,0.0,-999.0,79,-99.99,,,0.00,weatherlink.com 1.10,2013-01-26 23:43:00,
2013-01-26 18:58:00,49.0,43.0,30.21,East,84,0.0,-999.0,81,-99.99,,,0.00,weatherlink.com 1.10,2013-01-26 23:58:00,
2013-01-26 19:13:00,48.1,43.0,30.22,ENE,78,0.0,-999.0,83,-99.99,,,0.00,weatherlink.com 1.10,2013-01-27 00:13:00,
2013-01-26 19:28:00,47.3,43.0,30.22,NW,304,0.0,-999.0,84,-99.99,,,0.00,weatherlink.com 1.10,2013-01-27 00:28:00,
2013-01-26 19:43:00,46.7,42.0,30.23,NW,304,0.0,-999.0,84,-99.99,,,0.00,weatherlink.com 1.10,2013-01-27 00:43:00,
2013-01-26 19:58:00,46.0,42.0,30.23,NW,304,0.0,-999.0,85,-99.99,,,0.00,weatherlink.com 1.10,2013-01-27 00:58:00,
2013-01-26 20:13:00,45.5,42.0,30.23,NW,304,0.0,-999.0,86,-99.99,,,0.00,weatherlink.com 1.10,2013-01-27 01:13:00,
2013-01-26 20:28:00,45.0,41.0,30.24,NW,304,0.0,-999.0,87,-99.99,,,0.00,weatherlink.com 1.10,2013-01-27 01:28:00,
2013-01-26 20:44:00,44.5,41.0,30.24,NW,304,0.0,-999.0,87,-99.99,,,0.00,weatherlink.com 1.10,2013-01-27 01:44:00,
2013-01-26 20:59:00,44.2,41.0,30.24,NW,304,0.0,-999.0,88,-99.99,,,0.00,weatherlink.com 1.10,2013-01-27 01:59:00,
2013-01-26 21:14:00,44.1,41.0,30.25,NNW,340,0.0,-999.0,88,-99.99,,,0.00,weatherlink.com 1.10,2013-01-27 02:14:00,
2013-01-26 21:29:00,44.5,42.0,30.25,West,265,0.0,-999.0,89,-99.99,,,0.00,weatherlink.com 1.10,2013-01-27 02:29:00,
2013-01-26 21:44:00,45.0,42.0,30.26,ENE,59,0.0,-999.0,89,-99.99,,,0.00,weatherlink.com 1.10,2013-01-27 02:44:00,
2013-01-26 21:59:00,45.1,42.0,30.27,East,84,0.0,-999.0,88,-99.99,,,0.00,weatherlink.com 1.10,2013-01-27 02:59:00,
2013-01-26 22:14:00,45.1,42.0,30.27,East,83,0.0,-999.0,87,-99.99,,,0.00,weatherlink.com 1.10,2013-01-27 03:14:00,
2013-01-26 22:29:00,44.9,41.0,30.27,ENE,76,2.0,-999.0,86,-99.99,,,0.00,weatherlink.com 1.10,2013-01-27 03:29:00,
2013-01-26 22:44:00,45.0,41.0,30.27,ESE,106,0.0,-999.0,85,-99.99,,,0.00,weatherlink.com 1.10,2013-01-27 03:44:00,
2013-01-26 22:59:00,45.3,40.0,30.28,NE,47,0.0,-999.0,83,-99.99,,,0.00,weatherlink.com 1.10,2013-01-27 03:59:00,
2013-01-26 23:14:00,44.8,40.0,30.28,NE,47,0.0,-999.0,83,-99.99,,,0.00,weatherlink.com 1.10,2013-01-27 04:14:00,
2013-01-26 23:29:00,44.1,40.0,30.29,NE,47,0.0,-999.0,84,-99.99,,,0.00,weatherlink.com 1.10,2013-01-27 04:29:00,
2013-01-26 23:44:00,43.6,39.0,30.29,ENE,72,0.0,-999.0,85,-99.99,,,0.00,weatherlink.com 1.10,2013-01-27 04:44:00,
2013-01-26 23:59:00,43.3,39.0,30.28,NNE,28,0.0,-999.0,85,-99.99,,,0.00,weatherlink.com 1.10,2013-01-27 04:59:00,